DAL75 EHAM-KATL

Flight info

Callsign DAL75
Flight time N/A
Altitude 38000
Route BERGI L60 PENIL M144 BAGSO DOGAL/M081F370 NATA ALLRY/N0462F380 N476B TOPPS ENE BAF Q448 PTW/N0473F400 J48 MOL FLASK OZZZI2
Aircraft A333/H-SDE3GHIJ2J3J5M1RVWXY/LB2D1

Departure

Time N/A
Airport Amsterdam Airport Schiphol (EHAM)

Arrival

Time 2026-04-30 20:23
Airport Hartsfield Jackson Atlanta International Airport (KATL)
Time Latitude Longitude Altitude Speed Heading
2026-04-30 18:53 38.84135 -77.66001 37881 ft 437 kts 223°
2026-04-30 18:54 38.81768 -77.68438 37892 ft 438 kts 223°
2026-04-30 18:54 38.76947 -77.73396 37893 ft 439 kts 223°
2026-04-30 18:55 38.72154 -77.78315 37891 ft 436 kts 223°
2026-04-30 18:55 38.64985 -77.85680 38161 ft 425 kts 225°
2026-04-30 18:56 38.61267 -77.91292 38930 ft 406 kts 238°
2026-04-30 18:56 38.59582 -77.94237 39028 ft 407 kts 237°
2026-04-30 18:56 38.57892 -77.97141 39168 ft 407 kts 237°
2026-04-30 18:57 38.54451 -78.03008 39426 ft 407 kts 237°
2026-04-30 18:57 38.52737 -78.05925 39555 ft 407 kts 237°
2026-04-30 18:57 38.51022 -78.08834 39684 ft 407 kts 237°
2026-04-30 18:58 38.47561 -78.14704 39898 ft 409 kts 237°
2026-04-30 18:58 38.45833 -78.17628 39863 ft 412 kts 237°
2026-04-30 18:59 38.40561 -78.26538 39885 ft 418 kts 237°
2026-04-30 19:00 38.33412 -78.38580 39880 ft 422 kts 237°
2026-04-30 19:01 38.26227 -78.50635 39884 ft 423 kts 237°
2026-04-30 19:02 38.20839 -78.59648 39879 ft 423 kts 237°
2026-04-30 19:03 38.13598 -78.71721 39897 ft 424 kts 237°
2026-04-30 19:04 38.06366 -78.83735 39928 ft 425 kts 237°
2026-04-30 19:05 37.99081 -78.95793 39904 ft 425 kts 237°
2026-04-30 19:06 37.91803 -79.07793 39903 ft 425 kts 237°
2026-04-30 19:06 37.85938 -79.16425 39919 ft 427 kts 234°
2026-04-30 19:07 37.79863 -79.24870 39907 ft 427 kts 233°
2026-04-30 19:08 37.71786 -79.36079 39914 ft 426 kts 234°
2026-04-30 19:09 37.65747 -79.44429 39910 ft 425 kts 234°
2026-04-30 19:09 37.61713 -79.49999 39909 ft 424 kts 234°
2026-04-30 19:10 37.53669 -79.61076 39897 ft 423 kts 234°
2026-04-30 19:11 37.47633 -79.69357 39916 ft 422 kts 234°
2026-04-30 19:12 37.43598 -79.74885 39926 ft 423 kts 234°
2026-04-30 19:12 37.39575 -79.80385 39928 ft 423 kts 234°
2026-04-30 19:13 37.31502 -79.91392 39934 ft 423 kts 235°
2026-04-30 19:14 37.27475 -79.96874 39924 ft 423 kts 234°
2026-04-30 19:14 37.23444 -80.02348 39919 ft 423 kts 234°
2026-04-30 19:15 37.19427 -80.07793 39939 ft 422 kts 234°
2026-04-30 19:15 37.13359 -80.16003 39932 ft 421 kts 235°
2026-04-30 19:16 37.09337 -80.21431 39928 ft 421 kts 235°
2026-04-30 19:17 37.03299 -80.29565 39962 ft 420 kts 236°
2026-04-30 19:17 36.97144 -80.37556 39957 ft 421 kts 234°
2026-04-30 19:18 36.90933 -80.45503 39913 ft 422 kts 235°
2026-04-30 19:19 36.86778 -80.50807 39935 ft 420 kts 235°
2026-04-30 19:19 36.80586 -80.58697 39918 ft 418 kts 235°
2026-04-30 19:20 36.76467 -80.63936 39918 ft 417 kts 235°
2026-04-30 19:21 36.70305 -80.71757 39929 ft 418 kts 235°
2026-04-30 19:22 36.62048 -80.82204 39950 ft 419 kts 235°
2026-04-30 19:23 36.49679 -80.97797 39942 ft 417 kts 235°
2026-04-30 19:24 36.43486 -81.05572 39949 ft 416 kts 235°
2026-04-30 19:25 36.33211 -81.18439 39958 ft 415 kts 235°
2026-04-30 19:26 36.24993 -81.28703 39955 ft 414 kts 236°
2026-04-30 19:27 36.18863 -81.36343 39924 ft 413 kts 236°
2026-04-30 19:28 36.12714 -81.43986 39928 ft 413 kts 236°
2026-04-30 19:29 36.04524 -81.54144 39922 ft 412 kts 237°
2026-04-30 19:30 35.96370 -81.64223 39950 ft 410 kts 237°
2026-04-30 19:31 35.88173 -81.74325 39948 ft 411 kts 236°
2026-04-30 19:31 35.82034 -81.81866 39953 ft 411 kts 236°
2026-04-30 19:32 35.77921 -81.86883 39946 ft 412 kts 236°
2026-04-30 19:32 35.73778 -81.91843 39941 ft 412 kts 236°
2026-04-30 19:33 35.69631 -81.96802 39931 ft 411 kts 236°
2026-04-30 19:33 35.65489 -82.01756 39926 ft 411 kts 236°
2026-04-30 19:34 35.61352 -82.06688 39944 ft 410 kts 236°
2026-04-30 19:35 35.55146 -82.14079 39947 ft 409 kts 236°
2026-04-30 19:35 35.51010 -82.18998 39945 ft 410 kts 236°
2026-04-30 19:36 35.46862 -82.23920 39938 ft 410 kts 237°
2026-04-30 19:36 35.40717 -82.31300 39950 ft 407 kts 237°
2026-04-30 19:37 35.36706 -82.36295 39928 ft 402 kts 237°
2026-04-30 19:37 35.32811 -82.41130 39946 ft 391 kts 238°
2026-04-30 19:38 35.28950 -82.45924 39946 ft 394 kts 238°
2026-04-30 19:38 35.25053 -82.50749 39928 ft 395 kts 237°
2026-04-30 19:39 35.21138 -82.55589 39933 ft 396 kts 238°
2026-04-30 19:39 35.17233 -82.60408 39917 ft 394 kts 238°
2026-04-30 19:40 35.15246 -82.62839 39496 ft 400 kts 237°
2026-04-30 19:40 35.13242 -82.65205 38363 ft 400 kts 237°
2026-04-30 19:40 35.11250 -82.67570 37914 ft 390 kts 237°
2026-04-30 19:40 35.09278 -82.69914 37209 ft 390 kts 237°
2026-04-30 19:41 35.07316 -82.72246 36433 ft 391 kts 237°
2026-04-30 19:41 35.05341 -82.74586 35927 ft 388 kts 237°
2026-04-30 19:41 35.03393 -82.76896 35301 ft 387 kts 237°
2026-04-30 19:41 35.01458 -82.79191 34593 ft 387 kts 237°
2026-04-30 19:42 34.99514 -82.81484 34125 ft 384 kts 237°
2026-04-30 19:42 34.97562 -82.83797 33520 ft 382 kts 237°
2026-04-30 19:42 34.95657 -82.86051 32870 ft 385 kts 237°
2026-04-30 19:42 34.93711 -82.88350 32310 ft 385 kts 237°
2026-04-30 19:43 34.91739 -82.90640 31684 ft 387 kts 237°
2026-04-30 19:43 34.89780 -82.92910 31089 ft 387 kts 236°
2026-04-30 19:43 34.87807 -82.95195 30562 ft 386 kts 236°
2026-04-30 19:44 34.83906 -82.99705 29599 ft 380 kts 236°
2026-04-30 19:44 34.81977 -83.01936 29119 ft 377 kts 235°
2026-04-30 19:44 34.80048 -83.04166 28627 ft 374 kts 235°
2026-04-30 19:44 34.78166 -83.06342 28075 ft 373 kts 234°
2026-04-30 19:45 34.76249 -83.08556 27532 ft 371 kts 234°
2026-04-30 19:45 34.74368 -83.10722 27025 ft 369 kts 234°
2026-04-30 19:45 34.72480 -83.12896 26549 ft 366 kts 234°
2026-04-30 19:45 34.70621 -83.15036 26105 ft 362 kts 233°
2026-04-30 19:46 34.68795 -83.17139 25673 ft 358 kts 233°
2026-04-30 19:46 34.66968 -83.19240 25245 ft 354 kts 233°
2026-04-30 19:46 34.65190 -83.21282 24815 ft 350 kts 233°
2026-04-30 19:46 34.63412 -83.23325 24354 ft 347 kts 233°
2026-04-30 19:47 34.61634 -83.25367 23876 ft 344 kts 232°
2026-04-30 19:47 34.60464 -83.26711 23374 ft 350 kts 231°
2026-04-30 19:47 34.58096 -83.29424 22858 ft 343 kts 232°
2026-04-30 19:47 34.56352 -83.31421 22369 ft 340 kts 231°
2026-04-30 19:48 34.54627 -83.33401 21915 ft 339 kts 232°
2026-04-30 19:48 34.52884 -83.35409 21451 ft 338 kts 231°
2026-04-30 19:48 34.51171 -83.37376 21000 ft 336 kts 231°
2026-04-30 19:48 34.49476 -83.39329 20558 ft 335 kts 231°
2026-04-30 19:49 34.47769 -83.41289 20122 ft 334 kts 231°
2026-04-30 19:49 34.44370 -83.45191 19243 ft 334 kts 231°
2026-04-30 19:49 34.42677 -83.47136 18809 ft 332 kts 231°
2026-04-30 19:50 34.40997 -83.49059 18374 ft 329 kts 231°
2026-04-30 19:50 34.39315 -83.50983 17939 ft 331 kts 231°
2026-04-30 19:50 34.37630 -83.52914 17472 ft 330 kts 230°
2026-04-30 19:50 34.35957 -83.54828 17047 ft 328 kts 230°
2026-04-30 19:51 34.34288 -83.56737 16616 ft 326 kts 230°
2026-04-30 19:51 34.32622 -83.58641 16167 ft 324 kts 230°
2026-04-30 19:51 34.30973 -83.60525 15728 ft 324 kts 230°
2026-04-30 19:51 34.29319 -83.62414 15291 ft 325 kts 230°
2026-04-30 19:52 34.27614 -83.64259 14844 ft 324 kts 227°
2026-04-30 19:52 34.25899 -83.66083 14397 ft 323 kts 227°
2026-04-30 19:52 34.24206 -83.67886 13954 ft 324 kts 226°
2026-04-30 19:52 34.22521 -83.69679 13495 ft 323 kts 226°
2026-04-30 19:53 34.20805 -83.71505 13033 ft 322 kts 226°
2026-04-30 19:53 34.19114 -83.73302 12576 ft 321 kts 226°
2026-04-30 19:53 34.17446 -83.75073 12136 ft 319 kts 226°
2026-04-30 19:53 34.15763 -83.76861 11698 ft 317 kts 226°
2026-04-30 19:54 34.14097 -83.78631 11284 ft 316 kts 226°
2026-04-30 19:54 34.12439 -83.80389 10888 ft 313 kts 226°
2026-04-30 19:54 34.10819 -83.82106 10663 ft 308 kts 226°
2026-04-30 19:54 34.09191 -83.83838 10608 ft 310 kts 226°
2026-04-30 19:55 34.07547 -83.85604 10504 ft 311 kts 226°
2026-04-30 19:55 34.05922 -83.87349 10400 ft 312 kts 226°
2026-04-30 19:55 34.04287 -83.89103 10290 ft 312 kts 226°
2026-04-30 19:55 34.02688 -83.90816 10183 ft 303 kts 226°
2026-04-30 19:56 34.01133 -83.92480 10016 ft 287 kts 226°
2026-04-30 19:56 33.99675 -83.94036 9921 ft 267 kts 227°
2026-04-30 19:56 33.98296 -83.95515 9720 ft 259 kts 226°
2026-04-30 19:56 33.96741 -83.96601 9583 ft 262 kts 200°
2026-04-30 19:57 33.94864 -83.96767 9332 ft 274 kts 181°
2026-04-30 19:57 33.92956 -83.96660 9066 ft 273 kts 182°
2026-04-30 19:57 33.90997 -83.96571 8921 ft 284 kts 181°
2026-04-30 19:57 33.89021 -83.96481 8794 ft 280 kts 182°
2026-04-30 19:58 33.87081 -83.96399 8655 ft 273 kts 182°
2026-04-30 19:58 33.85188 -83.96320 8527 ft 266 kts 181°
2026-04-30 19:58 33.83327 -83.96242 8415 ft 267 kts 182°
2026-04-30 19:58 33.81456 -83.96164 8303 ft 266 kts 182°
2026-04-30 19:59 33.79588 -83.96088 8191 ft 266 kts 181°
2026-04-30 19:59 33.77734 -83.96009 8081 ft 265 kts 181°
2026-04-30 19:59 33.74063 -83.96551 7807 ft 278 kts 207°
2026-04-30 20:00 33.72254 -83.97474 7465 ft 281 kts 205°
2026-04-30 20:00 33.70450 -83.98373 7146 ft 280 kts 206°
2026-04-30 20:00 33.68644 -83.99271 6820 ft 279 kts 205°
2026-04-30 20:00 33.66884 -84.00202 6484 ft 270 kts 214°
2026-04-30 20:01 33.64846 -84.03635 6009 ft 249 kts 268°
2026-04-30 20:01 33.64859 -84.05682 5756 ft 246 kts 274°
2026-04-30 20:01 33.64882 -84.07748 5485 ft 246 kts 274°
2026-04-30 20:02 33.64908 -84.11817 4929 ft 241 kts 273°
2026-04-30 20:02 33.64917 -84.13846 4976 ft 242 kts 273°
2026-04-30 20:03 33.64926 -84.17795 4609 ft 231 kts 274°
2026-04-30 20:03 33.64930 -84.19720 4325 ft 225 kts 274°
2026-04-30 20:03 33.64934 -84.21576 4047 ft 219 kts 274°
2026-04-30 20:03 33.64938 -84.23360 3752 ft 213 kts 274°
2026-04-30 20:04 33.64944 -84.25120 3496 ft 208 kts 274°
2026-04-30 20:04 33.64944 -84.26852 3242 ft 204 kts 274°
2026-04-30 20:04 33.64944 -84.28468 2991 ft 184 kts 274°
2026-04-30 20:05 33.64946 -84.31301 2568 ft 164 kts 274°
2026-04-30 20:05 33.64948 -84.32619 2321 ft 150 kts 275°
2026-04-30 20:05 33.64951 -84.35043 1932 ft 143 kts 275°
2026-04-30 20:06 33.64953 -84.36246 1755 ft 144 kts 274°
2026-04-30 20:06 33.64953 -84.37454 1573 ft 143 kts 274°
2026-04-30 20:06 33.64954 -84.38655 1385 ft 144 kts 275°
2026-04-30 20:06 33.64954 -84.39845 1205 ft 142 kts 275°
2026-04-30 20:07 33.64959 -84.41045 1025 ft 142 kts 274°
2026-04-30 20:07 33.64933 -84.42194 995 ft 128 kts 274°
2026-04-30 20:07 33.64975 -84.44518 2081 ft 153 kts 276°
2026-04-30 20:08 33.64999 -84.45818 2902 ft 162 kts 276°
2026-04-30 20:08 33.65034 -84.47123 3801 ft 161 kts 283°
2026-04-30 20:08 33.65624 -84.48379 3971 ft 189 kts 319°
2026-04-30 20:08 33.66856 -84.49115 3824 ft 203 kts 343°
2026-04-30 20:09 33.68294 -84.49168 3993 ft 214 kts 14°
2026-04-30 20:09 33.69678 -84.48425 3984 ft 219 kts 25°
2026-04-30 20:09 33.71954 -84.46058 3970 ft 228 kts 68°
2026-04-30 20:10 33.72216 -84.42217 3960 ft 234 kts 85°
2026-04-30 20:10 33.72265 -84.40256 3963 ft 233 kts 84°
2026-04-30 20:10 33.72312 -84.38306 3964 ft 232 kts 85°
2026-04-30 20:11 33.72390 -84.34469 3969 ft 231 kts 85°
2026-04-30 20:11 33.72432 -84.32545 3965 ft 232 kts 85°
2026-04-30 20:11 33.72472 -84.30585 3963 ft 232 kts 85°
2026-04-30 20:12 33.72575 -84.26649 3977 ft 239 kts 84°
2026-04-30 20:12 33.72628 -84.24629 3960 ft 240 kts 85°
2026-04-30 20:12 33.72684 -84.22618 3966 ft 242 kts 84°
2026-04-30 20:13 33.72736 -84.20620 3960 ft 243 kts 84°
2026-04-30 20:13 33.72791 -84.18574 3961 ft 243 kts 84°
2026-04-30 20:13 33.72851 -84.16514 3958 ft 242 kts 84°
2026-04-30 20:13 33.72905 -84.14497 3959 ft 242 kts 84°
2026-04-30 20:14 33.72956 -84.12455 3957 ft 242 kts 85°
2026-04-30 20:14 33.73008 -84.10437 3955 ft 243 kts 85°
2026-04-30 20:14 33.73064 -84.08380 3952 ft 243 kts 85°
2026-04-30 20:14 33.72915 -84.06370 3935 ft 248 kts 107°
2026-04-30 20:15 33.71998 -84.04692 3941 ft 236 kts 135°
2026-04-30 20:15 33.70766 -84.03424 3931 ft 228 kts 146°
2026-04-30 20:15 33.69364 -84.02621 3960 ft 216 kts 161°
2026-04-30 20:15 33.67933 -84.02076 4047 ft 213 kts 164°
2026-04-30 20:16 33.66473 -84.02026 3871 ft 209 kts 199°
2026-04-30 20:16 33.65340 -84.03012 3941 ft 200 kts 241°
2026-04-30 20:16 33.65020 -84.04578 3967 ft 192 kts 273°
2026-04-30 20:16 33.64987 -84.06203 3956 ft 194 kts 272°
2026-04-30 20:17 33.64959 -84.07816 3945 ft 193 kts 273°
2026-04-30 20:17 33.64942 -84.09432 3953 ft 194 kts 274°
2026-04-30 20:17 33.64933 -84.11068 3950 ft 193 kts 274°
2026-04-30 20:17 33.64928 -84.12659 3944 ft 192 kts 274°
2026-04-30 20:18 33.64928 -84.14272 3949 ft 192 kts 274°
2026-04-30 20:18 33.64930 -84.15890 3950 ft 192 kts 274°
2026-04-30 20:18 33.64930 -84.17485 3950 ft 192 kts 274°
2026-04-30 20:18 33.64933 -84.19087 3953 ft 193 kts 274°
2026-04-30 20:19 33.64935 -84.20703 3957 ft 192 kts 274°
2026-04-30 20:19 33.64933 -84.22320 3921 ft 196 kts 274°
2026-04-30 20:19 33.64937 -84.23937 3658 ft 192 kts 274°
2026-04-30 20:19 33.64940 -84.25514 3467 ft 185 kts 274°
2026-04-30 20:20 33.64943 -84.27057 3212 ft 181 kts 274°
2026-04-30 20:20 33.64942 -84.28501 2951 ft 167 kts 276°
2026-04-30 20:20 33.64947 -84.29872 2743 ft 164 kts 274°
2026-04-30 20:20 33.64945 -84.31192 2527 ft 149 kts 275°
2026-04-30 20:21 33.64948 -84.32383 2325 ft 140 kts 275°
2026-04-30 20:21 33.64951 -84.33554 2156 ft 139 kts 274°
2026-04-30 20:21 33.64951 -84.34722 1983 ft 140 kts 275°
2026-04-30 20:21 33.64951 -84.35866 1815 ft 138 kts 274°
2026-04-30 20:22 33.64953 -84.37035 1636 ft 139 kts 274°
2026-04-30 20:22 33.64953 -84.38191 1455 ft 139 kts 275°
2026-04-30 20:22 33.64954 -84.39346 1282 ft 139 kts 275°
2026-04-30 20:22 33.64954 -84.40506 1103 ft 139 kts 275°
2026-04-30 20:23 33.64955 -84.41642 983 ft 119 kts 268°
2026-04-30 20:23 33.64955 -84.42275 988 ft 33 kts 271°
2026-04-30 20:23 33.64953 -84.42548 993 ft 27 kts 261°
2026-04-30 20:23 33.64903 -84.42738 997 ft 22 kts 244°
2026-04-30 20:24 33.64822 -84.42868 1000 ft 16 kts 205°
2026-04-30 20:24 33.64788 -84.42876 1001 ft 0 kts 187°
2026-04-30 20:25 33.64659 -84.42864 1002 ft 15 kts 163°
2026-04-30 20:25 33.64567 -84.42806 1003 ft 14 kts 141°
2026-04-30 20:26 33.64543 -84.42526 995 ft 21 kts 90°
2026-04-30 20:26 33.64542 -84.42291 987 ft 12 kts 95°
2026-04-30 20:26 33.64469 -84.42235 985 ft 15 kts 177°
2026-04-30 20:27 33.64244 -84.42239 988 ft 14 kts 182°
2026-04-30 20:27 33.64058 -84.42239 990 ft 13 kts 179°
2026-04-30 20:28 33.63893 -84.42237 992 ft 10 kts 155°
2026-04-30 20:28 33.63953 -84.42148 986 ft 0 kts 359°
2026-04-30 20:29 33.63986 -84.42104 983 ft 11 kts 78°
2026-04-30 20:30 33.63986 -84.42054 980 ft 0 kts 92°